• In Moldova, Republic
  • List of Countries
  • For 7 days
  • Water Temperature
  • Satellite Maps
  • Weather Map
  • Weather Widgets
  • user-avatar
    Login

    Hourly Weather Mayrhofen

    Today, 27 June, Tuesday

    Time Temperature Precipitation Wind Pressure Humidity
    00:00 +12°C° 0.8 mm 1 mps 617 mmHg 95%
    01:00 +10°C° 0 mm 2 mps 617 mmHg 96%
    02:00 +11°C° 0.6 mm 1 mps 617 mmHg 96%
    03:00 +11°C° 0.6 mm 1 mps 617 mmHg 96%
    04:00 +11°C° 0.6 mm 1 mps 617 mmHg 97%
    05:00 +12°C° 0.4 mm 1 mps 617 mmHg 95%
    06:00 +12°C° 0.4 mm 1 mps 617 mmHg 93%
    07:00 +13°C° 0.4 mm 1 mps 617 mmHg 91%
    08:00 +15°C° 0.3 mm 1 mps 618 mmHg 83%
    09:00 +16°C° 0.3 mm 1 mps 618 mmHg 75%
    10:00 +18°C° 0.3 mm 2 mps 619 mmHg 67%
    11:00 +18°C° 1 mm 2 mps 618 mmHg 68%
    12:00 +18°C° 1 mm 2 mps 618 mmHg 69%
    13:00 +19°C° 1 mm 2 mps 618 mmHg 71%
    14:00 +18°C° 1.2 mm 2 mps 618 mmHg 72%
    15:00 +18°C° 1.2 mm 2 mps 617 mmHg 74%
    16:00 +18°C° 1.2 mm 2 mps 617 mmHg 76%
    17:00 +17°C° 0.7 mm 2 mps 617 mmHg 80%
    18:00 +16°C° 0.7 mm 1 mps 616 mmHg 84%
    19:00 +16°C° 0.7 mm 1 mps 616 mmHg 87%
    20:00 +14°C° 0.3 mm 2 mps 615 mmHg 90%
    21:00 +13°C° 0.3 mm 2 mps 615 mmHg 93%
    22:00 +10°C° 0.3 mm 2 mps 614 mmHg 95%
    23:00 +10°C° 0 mm 2 mps 614 mmHg 95%

    Tomorrow, 28 June, Wednesday

    Time Temperature Precipitation Wind Pressure Humidity
    00:00 +10°C° 0 mm 2 mps 614 mmHg 95%
    01:00 +10°C° 0 mm 2 mps 613 mmHg 95%
    02:00 +10°C° 0 mm 2 mps 613 mmHg 95%
    03:00 +10°C° 0 mm 2 mps 613 mmHg 95%
    04:00 +10°C° 0 mm 2 mps 612 mmHg 95%
    05:00 +12°C° 0.1 mm 2 mps 612 mmHg 93%
    06:00 +13°C° 0.1 mm 2 mps 612 mmHg 91%
    07:00 +13°C° 0.1 mm 2 mps 613 mmHg 89%
    08:00 +15°C° 0.2 mm 2 mps 613 mmHg 81%
    09:00 +16°C° 0.2 mm 3 mps 613 mmHg 74%
    10:00 +18°C° 0.2 mm 3 mps 614 mmHg 66%
    11:00 +18°C° 0.9 mm 3 mps 614 mmHg 66%
    12:00 +18°C° 0.9 mm 3 mps 613 mmHg 67%
    13:00 +18°C° 0.9 mm 3 mps 613 mmHg 67%
    14:00 +17°C° 1 mm 3 mps 613 mmHg 70%
    15:00 +17°C° 1 mm 2 mps 612 mmHg 73%
    16:00 +16°C° 1 mm 2 mps 612 mmHg 77%
    17:00 +15°C° 1.8 mm 2 mps 611 mmHg 83%
    18:00 +14°C° 1.8 mm 2 mps 610 mmHg 90%
    19:00 +12°C° 1.8 mm 1 mps 609 mmHg 97%
    20:00 +12°C° 2.8 mm 1 mps 609 mmHg 97%
    21:00 +11°C° 2.8 mm 1 mps 608 mmHg 97%
    22:00 +11°C° 2.8 mm 1 mps 608 mmHg 97%
    23:00 +10°C° 0.7 mm 1 mps 607 mmHg 97%

    Day after tomorrow, 29 June, Thursday

    Time Temperature Precipitation Wind Pressure Humidity
    00:00 +10°C° 0.7 mm 1 mps 607 mmHg 97%
    01:00 +9°C° 0.7 mm 1 mps 607 mmHg 97%
    02:00 +9°C° 0.5 mm 1 mps 606 mmHg 97%
    03:00 +8°C° 0.5 mm 1 mps 606 mmHg 98%
    04:00 +8°C° 0.5 mm 1 mps 606 mmHg 98%
    05:00 +9°C° 0.7 mm 1 mps 607 mmHg 96%
    06:00 +9°C° 0.7 mm 1 mps 607 mmHg 95%
    07:00 +10°C° 0.7 mm 1 mps 608 mmHg 94%
    08:00 +10°C° 1.1 mm 1 mps 608 mmHg 92%
    09:00 +11°C° 1.1 mm 1 mps 609 mmHg 90%
    10:00 +11°C° 1.1 mm 1 mps 609 mmHg 88%
    11:00 +11°C° 1.2 mm 1 mps 609 mmHg 87%
    12:00 +12°C° 1.2 mm 1 mps 610 mmHg 86%
    13:00 +12°C° 1.2 mm 1 mps 610 mmHg 85%
    14:00 +11°C° 1.1 mm 1 mps 610 mmHg 86%
    15:00 +11°C° 1.1 mm 1 mps 610 mmHg 86%
    16:00 +11°C° 1.1 mm 1 mps 610 mmHg 87%
    17:00 +10°C° 0.7 mm 1 mps 610 mmHg 89%
    18:00 +10°C° 0.7 mm 1 mps 611 mmHg 91%
    19:00 +9°C° 0.7 mm 1 mps 611 mmHg 93%
    20:00 +8°C° 0.8 mm 1 mps 611 mmHg 94%
    21:00 +7°C° 0.8 mm 1 mps 611 mmHg 95%
    22:00 +7°C° 0.8 mm 1 mps 611 mmHg 96%
    23:00 +6°C° 0.6 mm 1 mps 611 mmHg 96%

    30 June, Friday

    Time Temperature Precipitation Wind Pressure Humidity
    00:00 +6°C° 0.6 mm 1 mps 611 mmHg 96%
    01:00 +6°C° 0.6 mm 1 mps 611 mmHg 95%
    02:00 +5°C° 0.2 mm 1 mps 611 mmHg 95%
    03:00 +4°C° 0.2 mm 1 mps 611 mmHg 94%
    04:00 +4°C° 0.2 mm 1 mps 611 mmHg 94%
    05:00 +5°C° 0.1 mm 1 mps 612 mmHg 92%
    06:00 +7°C° 0.1 mm 1 mps 612 mmHg 90%
    07:00 +8°C° 0.1 mm 1 mps 613 mmHg 88%
    08:00 +10°C° 0.1 mm 1 mps 614 mmHg 80%
    09:00 +10°C° 0.1 mm 2 mps 615 mmHg 72%
    10:00 +13°C° 0.1 mm 2 mps 615 mmHg 64%
    11:00 +13°C° 0.5 mm 2 mps 615 mmHg 65%
    12:00 +12°C° 0.5 mm 3 mps 615 mmHg 65%
    13:00 +12°C° 0.5 mm 3 mps 615 mmHg 66%
    14:00 +12°C° 0.9 mm 3 mps 615 mmHg 67%
    15:00 +12°C° 0.9 mm 3 mps 615 mmHg 68%
    16:00 +12°C° 0.9 mm 2 mps 615 mmHg 69%
    17:00 +10°C° 0.5 mm 2 mps 615 mmHg 74%
    18:00 +10°C° 0.5 mm 2 mps 615 mmHg 79%
    19:00 +10°C° 0.5 mm 1 mps 615 mmHg 84%
    20:00 +8°C° 0.4 mm 1 mps 615 mmHg 88%
    21:00 +7°C° 0.4 mm 1 mps 615 mmHg 91%
    22:00 +6°C° 0.4 mm 1 mps 614 mmHg 94%
    23:00 +5°C° 0.2 mm 1 mps 614 mmHg 94%

    1 July, Saturday

    Time Temperature Precipitation Wind Pressure Humidity
    00:00 +4°C° 0.2 mm 1 mps 614 mmHg 94%
    01:00 +4°C° 0.2 mm 1 mps 613 mmHg 94%
    02:00 +4°C° 0.1 mm 1 mps 613 mmHg 93%
    03:00 +3°C° 0.1 mm 1 mps 613 mmHg 93%
    04:00 +3°C° 0.1 mm 1 mps 613 mmHg 92%
    05:00 +5°C° 0 mm 1 mps 614 mmHg 85%
    06:00 +6°C° 0 mm 0 mps 615 mmHg 79%
    07:00 +8°C° 0 mm 0 mps 616 mmHg 73%
    08:00 +11°C° 0 mm 0 mps 616 mmHg 64%
    09:00 +13°C° 0 mm 0 mps 617 mmHg 55%
    10:00 +15°C° 0 mm 0 mps 618 mmHg 46%
    11:00 +16°C° 0.2 mm 1 mps 618 mmHg 47%
    12:00 +16°C° 0.2 mm 1 mps 618 mmHg 47%
    13:00 +16°C° 0.2 mm 1 mps 618 mmHg 48%
    14:00 +15°C° 0.7 mm 1 mps 618 mmHg 56%
    15:00 +14°C° 0.7 mm 1 mps 618 mmHg 64%
    16:00 +13°C° 0.7 mm 1 mps 617 mmHg 72%
    17:00 +12°C° 0.6 mm 1 mps 617 mmHg 77%
    18:00 +11°C° 0.6 mm 1 mps 617 mmHg 83%
    19:00 +11°C° 0.6 mm 1 mps 617 mmHg 89%
    20:00 +9°C° 0.2 mm 1 mps 617 mmHg 91%
    21:00 +7°C° 0.2 mm 1 mps 617 mmHg 93%
    22:00 +6°C° 0.2 mm 1 mps 617 mmHg 96%
    23:00 +6°C° 0 mm 1 mps 617 mmHg 96%

    2 July, Sunday

    Time Temperature Precipitation Wind Pressure Humidity
    00:00 +5°C° 0 mm 1 mps 617 mmHg 96%
    01:00 +5°C° 0 mm 1 mps 617 mmHg 96%
    02:00 +5°C° 0.2 mm 1 mps 617 mmHg 96%
    03:00 +6°C° 0.2 mm 1 mps 617 mmHg 97%
    04:00 +6°C° 0.2 mm 1 mps 617 mmHg 97%
    05:00 +7°C° 0.4 mm 1 mps 617 mmHg 95%
    06:00 +7°C° 0.4 mm 1 mps 618 mmHg 93%
    07:00 +8°C° 0.4 mm 1 mps 619 mmHg 91%
    08:00 +9°C° 0.4 mm 1 mps 619 mmHg 87%
    09:00 +10°C° 0.4 mm 1 mps 620 mmHg 82%
    10:00 +11°C° 0.4 mm 1 mps 620 mmHg 77%
    11:00 +12°C° 0.2 mm 1 mps 620 mmHg 76%
    12:00 +13°C° 0.2 mm 1 mps 620 mmHg 74%
    13:00 +13°C° 0.2 mm 1 mps 621 mmHg 72%
    14:00 +14°C° 0.1 mm 2 mps 620 mmHg 70%
    15:00 +14°C° 0.1 mm 2 mps 620 mmHg 69%
    16:00 +14°C° 0.1 mm 2 mps 620 mmHg 67%
    17:00 +14°C° 0 mm 2 mps 620 mmHg 73%
    18:00 +13°C° 0 mm 1 mps 620 mmHg 79%
    19:00 +12°C° 0 mm 1 mps 620 mmHg 85%
    20:00 +11°C° 0.1 mm 1 mps 620 mmHg 89%
    21:00 +10°C° 0.1 mm 1 mps 620 mmHg 92%
    22:00 +8°C° 0.1 mm 1 mps 620 mmHg 95%
    23:00 +8°C° 0.2 mm 1 mps 619 mmHg 95%
    Show more